Location: Bakhuizen
(52.8696°N, 5.4575°E)
Time: 05:36:17
(UTC+00:00)

Nimbus 7 Rocket - Pass Details

Date: 04 October 2021
Orbit: 922 x 965 km, 99.4° (Epoch: 17 October)

Event Time Altitude Azimuth Distance (km) Brightness Sun altitude
Rises 02:20:15 0° 10° (N) 3,589 8.1 -29.9°
Reaches altitude 10° 02:24:26 10° 341° (NNW) 2,648 6.9 -29.4°
Maximum altitude 02:26:28 12° 321° (NW) 2,510 6.6 -29.2°
Enters shadow 02:26:40 12° 319° (NW) 2,512 6.6 -29.2°
